Location: *
(44.1392°N, 4.8079°E)
Time: 14:16:48
(UTC+00:00)

X-37B - Visible Passes

Search period start: 22 October 2021 00:00
Search period end: 01 November 2021 00:00
Orbit: 385 x 389 km, 45.0° (Epoch: 17 October)

Date Brightness Start Highest point End Pass type
(mag) Time Alt. Az. Time Alt. Az. Time Alt. Az.
22 Oct 0.5 18:06:09 10° W 18:09:21 88° N 18:10:16 43° E visible
23 Oct 0.6 17:07:46 10° W 17:10:57 75° N 17:14:08 10° E visible
23 Oct 1.9 18:44:29 10° W 18:46:50 38° WSW 18:46:50 38° WSW visible
24 Oct 0.7 17:46:04 10° W 17:49:13 69° SSW 17:51:11 21° ESE visible
24 Oct 4.0 19:23:17 10° WSW 19:23:29 11° WSW 19:23:29 11° WSW visible
25 Oct 2.1 18:24:31 10° W 18:27:19 29° SSW 18:27:55 26° S visible
26 Oct 1.5 17:26:00 10° W 17:29:04 45° SSW 17:32:07 10° SE visible
27 Oct 3.2 18:04:48 10° WSW 18:07:01 17° SSW 18:09:13 10° S visible
28 Oct 2.5 17:06:02 10° W 17:08:50 28° SSW 17:11:37 10° SSE visible
